This demonstration page uses our WeatherBlox Daily Observations layout. Learn more.

Left ArrowRight Arrow

Hourly Observations for February 21, 2022

Temp ( °F °C ) Dew Point ( °F °C ) Humidity (%) Winds ( mph kmh ) Pressure ( in mb ) Visibility ( mi km ) Precip ( " mm )
12:53 am 00:53 Clear 50 10 21 -6.1 32 32 N 12 19 29.91 1013 10 16 0.00 0.00
1:53 am 01:53 Clear 48 8.9 21 -6.1 34 34 N 8 13 29.93 1014 10 16 0.00 0.00
2:53 am 02:53 Clear 46 7.8 21 -6.1 37 37 N 10 17 29.93 1014 10 16 0.00 0.00
3:53 am 03:53 Clear 46 7.8 20 -6.7 35 35 NNW 7 11 29.92 1013 10 16 0.00 0.00
4:53 am 04:53 Clear 43 6.1 21 -6.1 42 42 NE 6 9 29.93 1014 10 16 0.00 0.00
5:53 am 05:53 Clear 43 6.1 21 -6.1 42 42 N 6 9 29.94 1014 10 16 0.00 0.00
6:53 am 06:53 Clear 42 5.6 21 -6.1 43 43 NNW 5 7 29.95 1014 10 16 0.00 0.00
7:53 am 07:53 Sunny 44 6.7 21 -6.1 40 40 N 5 7 29.96 1015 10 16 0.00 0.00
8:53 am 08:53 Sunny 48 8.9 22 -5.6 36 36 Calm 29.97 1015 10 16 0.00 0.00
9:53 am 09:53 Sunny 51 10.6 21 -6.1 31 31 Calm 29.97 1015 10 16 0.00 0.00
10:53 am 10:53 Sunny 52 11.1 20 -6.7 28 28 N 3 6 29.96 1014 10 16 0.00 0.00
11:53 am 11:53 Mostly Sunny 53 11.7 20 -6.7 27 27 S 3 6 29.93 1014 10 16 0.00 0.00
12:53 pm 12:53 Cloudy 53 11.7 20 -6.7 27 27 ESE 6 9 29.90 1012 10 16 0.00 0.00
1:53 pm 13:53 Cloudy 54 12.2 21 -6.1 28 28 SE 8 13 29.86 1011 10 16 0.00 0.00
2:53 pm 14:53 Mostly Cloudy 54 12.2 22 -5.6 29 29 SSE 16 26 29.83 1010 10 16 0.00 0.00
3:53 pm 15:53 Mostly Cloudy 56 13.3 27 -2.8 33 33 SW 17 28 29.81 1010 10 16 0.00 0.00
4:53 pm 16:53 Mostly Cloudy 55 12.8 29 -1.7 37 37 WSW 9 15 29.81 1010 10 16 0.00 0.00
5:53 pm 17:53 Partly Cloudy 52 11.1 31 -0.6 45 45 WSW 8 13 29.81 1010 10 16 0.00 0.00
6:53 pm 18:53 Mostly Clear 48 8.9 32 0 54 54 W 7 11 29.83 1010 10 16 0.00 0.00
7:53 pm 19:53 Clear 47 8.3 27 -2.8 46 46 WNW 5 7 29.83 1010 10 16 0.00 0.00
8:53 pm 20:53 Clear 44 6.7 27 -2.8 51 51 Calm 29.83 1010 10 16 0.00 0.00
9:53 pm 21:53 Clear 42 5.6 27 -2.8 55 55 Calm 29.85 1011 10 16 0.00 0.00
10:53 pm 22:53 Clear 40 4.4 25 -3.9 55 55 WNW 7 11 29.85 1011 10 16 0.00 0.00
11:53 pm 23:53 Clear 40 4.4 25 -3.9 55 55 NNE 5 7 29.86 1011 10 16 0.00 0.00

Powered by AerisWeather